User: anonymous   Login
Location: Belfast
(54.5830°N, 5.9330°W)
Time: 08:22:03
(UTC+01:00)
Language:

Coronas F rocket - Orbit

View from above orbital plane
View from above orbital plane
View from above satellite
View from above satellite

Ground track
Ground track

The orbit data is extracted from the following two-line orbital elements,

1 26874U 01032B   16152.54009226  .00024208  00000-0  12784-3 0  9997
2 26874  82.4593 300.0938 0005953 258.7302 101.3296 15.80429251833016
Epoch (UTC): 31 May 2016 12:57:43
Eccentricity: 0.0005953
inclination: 82.4593°
perigee height: 325 km
apogee height: 333 km
right ascension of ascending node: 300.0938°
argument of perigee: 258.7302°
revolutions per day: 15.80429251
mean anomaly at epoch: 101.3296°
orbit number at epoch: 83301

The dashed part of the orbit path shows where the satellite is in the earth's shadow,  

DLR